Find Starlink 31170

NORAD ID: 58801 Int'l Des: 2024-012 Owner: SPXS Country: US Constellation: starlink operational
LEOCIRCULAR

当前视图

正在加载3D地球...

About Starlink 31170

Starlink 31170 (NORAD 58801) is a starlink constellation satellite (v2 mini) launched Jan 15, 2024 by SPXS of US. It operates in LEO, CIRCULAR orbit with a mass of 730.00 kg.

即将过境

Passes for default location (London). Set your location on the main map for personalized predictions.

高度历史

Loading altitude history...

两行轨道根数

1 58801U 24012Q 26264.38036438 -.00000456 00000-0 -70516-5 0 9997
2 58801 43.0056 140.1454 0001159 263.6211 96.4508 15.27578399151160
Epoch: Sep 21, 2026 • Age: 11 hours

当前状态

高度 491.5 km
远地点 / 近地点 N/A
速度 7.62 km/s
星下点 -32.62°S, 155.57°E
发射日期 Jan 15, 2024
运行时间 2.6 years
类型 internet

技术详情

分类 Payload
质量 730.00 kg
干质量 700.00 kg
长度 0.30 m
跨度 29.00 m
形状 ? Box + pan
制造商 SPXS
平台类型 Starlink V2M
阶段状态 In Orbit
所有者/国家 SPXS/US

Most Searched